This is the latest recevied weather packets stored in our database for station/object K7FLA. If no packets are shown the sender has not sent any weather packets the latest 10 day(s).
| Time | Temp. | Humidity | Pressure | Rain* | Wind** | Luminosity | Snow |
|---|---|---|---|---|---|---|---|
| 1788455488 | 27.78° C | 28% | 1096.2 hPa | 0 mm | - | 596 W/m² | - |
| 1788455187 | 27.78° C | 28% | 1096.1 hPa | 0 mm | - | 580 W/m² | - |
| 1788454883 | 27.22° C | 30% | 1096.1 hPa | 0 mm | - | 565 W/m² | - |
| 1788454580 | 26.67° C | 30% | 1096.1 hPa | 0 mm | - | 552 W/m² | - |
| 1788454275 | 27.22° C | 28% | 1096.1 hPa | 0 mm | - | 535 W/m² | - |
| 1788453970 | 27.22° C | 30% | 1095.9 hPa | 0 mm | - | 518 W/m² | - |
| 1788453666 | 27.22° C | 30% | 1096.1 hPa | 0 mm | - | 502 W/m² | - |
| 1788453360 | 27.22° C | 31% | 1096 hPa | 0 mm | - | 484 W/m² | - |
| 1788453056 | 26.67° C | 35% | 1096.1 hPa | 0 mm | - | 468 W/m² | - |
| 1788452752 | 26.11° C | 34% | 1096.1 hPa | 0 mm | - | 452 W/m² | - |
| 1788452448 | 26.11° C | 34% | 1096.1 hPa | 0 mm | - | 433 W/m² | - |
| 1788452143 | 26.11° C | 34% | 1096.2 hPa | 0 mm | - | 418 W/m² | - |
| 1788451839 | 25.56° C | 35% | 1096 hPa | 0 mm | - | 400 W/m² | - |
| 1788451538 | 25.56° C | 32% | 1096.1 hPa | 0 mm | - | 384 W/m² | - |
| 1788451233 | 25.56° C | 34% | 1096.2 hPa | 0 mm | - | 367 W/m² | - |
| 1788450931 | 25.56° C | 34% | 1096 hPa | 0 mm | - | 351 W/m² | - |
| 1788450627 | 25.56° C | 34% | 1096.1 hPa | 0 mm | - | 330 W/m² | - |
| 1788450324 | 25° C | 36% | 1096.1 hPa | 0 mm | - | 313 W/m² | - |
| 1788450020 | 25° C | 37% | 1096.2 hPa | 0 mm | - | 298 W/m² | - |
| 1788449714 | 25° C | 36% | 1096.1 hPa | 0 mm | - | 282 W/m² | - |
| 1788449411 | 24.44° C | 40% | 1096 hPa | 0 mm | - | 265 W/m² | - |
| 1788449107 | 24.44° C | 39% | 1096.2 hPa | 0 mm | - | 249 W/m² | - |
| 1788448803 | 23.89° C | 42% | 1096.2 hPa | 0 mm | - | 234 W/m² | - |
| 1788448502 | 23.33° C | 42% | 1096.2 hPa | 0 mm | - | 217 W/m² | - |
| 1788448197 | 23.33° C | 42% | 1096.3 hPa | 0 mm | - | 201 W/m² | - |
* Rain latest hour (hover to see other rain measurements)
** Current wind speed in m/s (hover to see current wind gust speed)